COSMOS 1275 DEB

Satellite information

Favourite Embed

Satellite Type and Status

DEBRISIN ORBIT

Key statistics

Satellite COSMOS 1275 DEB at a glance.

Uptime

16218

Days in orbit

Revolutions

≈ 13.9

Per day

Orbit

LEO

Low Earth Orbit

Inclination

82.8

Latest

Satellite identification and parameters

Extended collection of information and parameters for COSMOS 1275 DEB.

Object identification

Identified? True

Debris? True

Object name: COSMOS 1275 DEB

International designator: 1981-053QR

Object number (NORAD): 42129

Object ID (CCSDS): 42129

Country: COMMONWEALTH OF INDEPENDENT STATES (CIS)

Current information (Y/N): Y

RCS size: SMALL

Orbital parameters

Period: 103.533 minutes

Inclination: 82.8444 deg

SMA: 7303.753 km

Apoapsis: 971.125 km

Periapsis: 880.111 km

RAAN: 196.7056 deg

Eccentricy: 0.00623063

Argument of periapsis: 352.5413 deg

Mean anomaly: 7.4818 deg

Mean motion: 13.90860651 rev/day

Mean motion (dot): 0.00001057 rev/day2

B* drag term: 0.00082021303 1/REarth

Two-line elements (TLE)

Creation date: Oct. 2, 2025, 8:40 p.m.

Reference frame: TEME

Reference center: EARTH

Epoch: Sept. 16, 2025, 1:38 a.m. UTC

TLE line 0: 0 COSMOS 1275 DEB

TLE line 1: 1 42129U 81053QR 25259.06810347 .00001057 00000-0 82021-3 0 9996

TLE line 2: 2 42129 82.8444 196.7056 0062306 352.5413 7.4818 13.90860651559606

Live tracking on map

Real-time ground track for satellite COSMOS 1275 DEB.

In-orbit conjunctions

A list of the most updated potential collisions computed for object COSMOS 1275 DEB.

Target Orbit TCA Probability of collision Miss distance Type
COSMOS 1275 DEB LEO 2024-11-14 03:30:47 0.0002159412 341.0 (m) DEBRIS

Associated space launch

Navigation satellite providing location information for the Tsiklon-B navigation system

COSMOS 1275 DEB was lifted into orbit during the mission ‘Kosmos-3M | Parus 27’, on board a Kosmos-3M space rocket.

The launch took place on June 4, 1981, 3:41 p.m. from 132/2.

For more information about the launch, click the button.

Launch to space Kosmos-3M | Parus 27
Kosmos-3M | Parus 27

Agency: N/A

Status: Launch Successful

Launch date: June 4, 1981, 3:41 p.m. UTC

Rocket: Kosmos-3M

Launch pad: 132/2

Location: Plesetsk Cosmodrome, Russian Federation

...

Latest news about this satellite

There are no fresh news available about this satellite. Check back as we update our databases every day.


Newsletter sign-up

Weekly statistics, charts and insights to help you stay on top of the space industry.